Вернуться в каталог

CZ-6A DEB

АктивенPO
NORAD 61361·DEBRIS·🇨🇳 China

Запущен Aug 6, 2024 с Taiyuan Satellite Launch Center

Loading…

Ближайшие Пролёты (ближайшие 24 часа)

TLE

СвежийSource: Space-Track

Эпоха: Sep 14, 2026, 08:05 UTC

1 61361U 24140WA  26257.33695745  .00000752  00000-0  16531-3 0  9995
2 61361  89.0320 263.3240 0106449 329.7019  29.8061 14.53061823107508

Отслеживайте CZ-6A DEB в реальном времени с AllMySat

Download on the App Store